Total_Precipitation_Accumulation
1.79 1.80 2.50 3.46 3.99 3.53 3.16 2.56 2.05 1.72 1.43 1.14 0.91 0.88 1.31 1.79 2.30 2.65 2.46 2.27 1.79 1.53 1.61 2.29 2.91 2.61 2.25 2.08 2.15 2.31 2.19 2.18 2.03 1.97 1.83 1.68 1.43 1.30 1.22 1.11 1.05 1.05 0.96 0.87 0.95 1.15 1.13 1.15 1.19
1.67 2.42 3.33 4.24 3.88 3.12 2.97 2.44 2.06 1.62 1.10 0.88 0.70 0.70 0.93 0.96 0.92 1.36 2.36 2.46 1.72 1.41 1.47 1.97 2.92 2.58 2.42 2.31 2.34 2.29 2.22 2.28 2.09 1.94 1.80 1.63 1.46 1.44 1.40 1.47 1.47 1.30 1.09 0.96 0.98 1.20 1.14 1.07 1.16
1.84 3.06 4.20 4.17 3.07 2.72 2.91 2.37 1.74 1.23 0.84 0.81 0.77 0.67 0.83 1.10 1.13 1.78 2.47 2.13 1.59 1.35 1.46 2.26 2.96 2.63 2.46 2.42 2.40 2.27 2.34 2.38 2.18 1.94 1.72 1.52 1.55 1.76 1.78 1.70 1.58 1.35 1.13 1.00 1.00 1.12 1.14 1.07 1.07
2.25 3.48 3.64 3.18 2.80 2.37 2.17 1.92 1.46 1.38 1.03 0.74 0.72 0.78 0.74 1.06 1.27 1.73 1.92 1.70 1.55 1.54 1.56 2.28 2.95 2.76 2.53 2.45 2.37 2.30 2.34 2.44 2.36 2.04 1.74 1.59 1.63 1.70 1.69 1.63 1.52 1.30 1.14 0.99 1.05 1.14 1.13 1.13 1.08
2.69 3.34 3.31 2.87 2.67 2.29 1.71 1.53 1.35 1.52 1.36 0.91 0.74 0.98 1.14 1.46 1.60 1.67 1.70 1.71 1.47 1.49 1.55 2.00 2.67 2.63 2.44 2.35 2.32 2.41 2.42 2.40 2.40 2.15 1.86 1.76 1.71 1.67 1.70 1.62 1.51 1.24 1.10 1.00 1.10 1.15 1.13 1.07 1.09
2.96 2.99 3.22 3.07 2.85 2.43 1.93 1.59 1.43 1.44 1.28 0.96 0.89 1.10 1.43 1.92 1.97 1.91 1.66 1.70 1.64 1.50 1.46 1.71 2.30 2.51 2.42 2.42 2.33 2.40 2.45 2.41 2.30 1.97 1.81 1.70 1.71 1.72 1.69 1.64 1.55 1.31 1.24 1.18 1.11 1.07 1.09 1.07 1.08
2.84 2.85 2.82 2.58 2.79 2.95 2.31 1.57 1.58 1.44 1.36 1.13 0.89 1.21 1.49 2.06 1.90 1.90 1.81 1.77 1.84 1.71 1.68 1.76 2.01 2.26 2.63 2.71 2.54 2.51 2.51 2.43 2.25 1.91 1.79 1.69 1.63 1.55 1.54 1.53 1.42 1.30 1.29 1.20 1.08 1.00 0.98 1.03 1.06
2.25 2.33 2.25 2.32 2.69 2.85 2.07 1.31 1.17 1.35 1.36 0.94 0.81 1.15 1.50 1.80 1.72 1.84 1.96 1.96 1.85 1.79 1.74 1.65 1.78 1.92 2.21 2.43 2.63 2.66 2.56 2.45 2.29 1.96 1.83 1.74 1.64 1.52 1.45 1.30 1.28 1.25 1.27 1.31 1.16 1.08 1.06 1.05 1.13
2.08 2.42 2.52 2.67 2.54 2.34 1.60 1.32 1.12 1.01 1.08 0.92 0.81 0.93 1.29 1.37 1.48 1.80 2.06 2.06 1.81 1.65 1.55 1.46 1.52 1.67 1.89 2.15 2.37 2.58 2.50 2.40 2.22 1.93 1.84 1.81 1.61 1.38 1.31 1.18 1.39 1.32 1.31 1.35 1.33 1.33 1.28 1.15 1.11
2.16 2.54 2.53 2.17 1.69 1.58 1.38 1.23 1.12 1.06 1.17 1.13 1.01 1.06 1.37 1.53 1.59 1.77 1.85 1.77 1.59 1.61 1.44 1.26 1.32 1.47 1.61 1.74 2.24 2.32 2.01 1.87 1.72 1.85 1.78 1.70 1.64 1.45 1.05 1.13 1.42 1.54 1.50 1.36 1.32 1.40 1.22 0.94 0.83
1.73 1.95 1.70 1.66 1.30 1.13 1.16 1.11 1.00 1.17 1.35 1.10 1.09 1.17 1.47 1.68 1.61 1.65 1.63 1.51 1.45 1.40 1.31 1.19 1.20 1.20 1.21 1.36 1.68 1.92 1.94 1.87 1.67 1.58 1.52 1.52 1.41 1.19 1.00 1.09 1.15 1.13 1.11 1.01 1.03 1.00 0.83 0.75 0.81
1.52 1.43 1.21 1.32 1.14 1.14 1.17 1.05 1.00 1.06 1.14 0.86 0.91 1.11 1.44 1.63 1.63 1.55 1.45 1.39 1.31 1.21 1.19 1.12 1.04 1.00 0.97 1.03 1.10 1.22 1.48 1.56 1.53 1.32 1.17 1.21 1.26 1.18 1.02 1.02 1.00 0.98 0.99 1.10 1.09 1.06 0.97 0.93 0.91
1.68 1.48 1.26 1.19 1.14 1.11 1.09 1.04 0.97 0.93 0.85 0.84 0.92 1.21 1.52 1.77 1.88 1.82 1.50 1.23 1.13 1.14 1.14 1.05 0.91 0.91 0.92 0.97 1.01 0.95 1.18 1.34 1.38 1.33 1.15 1.07 1.10 1.12 1.07 0.94 0.95 0.90 0.91 0.98 1.02 1.03 1.08 1.14 1.09
1.53 1.39 1.35 1.32 1.18 1.03 1.06 1.02 0.95 1.07 0.93 0.93 0.94 1.09 1.26 1.46 1.55 1.48 1.44 1.21 1.02 1.01 1.09 1.02 0.96 1.00 0.96 0.90 0.92 0.93 0.98 1.08 1.09 1.21 1.18 1.10 1.04 1.01 1.04 1.01 1.04 1.02 0.99 0.97 0.96 0.95 1.08 1.13 1.16
1.19 1.42 1.45 1.37 1.21 1.09 1.01 1.21 1.11 1.15 1.05 1.06 1.04 1.04 1.14 1.23 1.29 1.17 1.07 0.95 0.93 0.91 0.91 0.86 0.87 0.93 0.92 0.92 0.91 0.92 1.04 1.07 1.08 1.10 1.04 1.09 1.00 0.96 1.01 1.03 1.06 1.06 1.05 1.03 1.04 1.06 1.14 1.19 1.28
1.29 1.60 1.84 1.49 1.29 1.24 1.27 1.48 1.30 1.25 1.18 1.10 1.03 1.03 1.04 1.13 1.24 1.22 1.10 0.89 0.84 0.80 0.79 0.80 0.72 0.81 0.93 1.01 1.05 1.13 1.18 1.20 1.23 1.13 1.05 1.03 0.98 0.97 1.07 1.08 1.11 1.17 1.09 1.08 1.18 1.23 1.32 1.35 1.41
1.57 1.60 1.56 1.50 1.24 1.23 1.28 1.32 1.22 1.29 1.23 1.06 0.95 0.91 0.86 0.94 0.98 1.00 1.01 0.92 0.84 0.79 0.81 0.84 0.79 0.85 0.96 1.01 1.14 1.24 1.31 1.38 1.47 1.38 1.34 1.28 1.16 1.15 1.27 1.33 1.32 1.34 1.35 1.29 1.19 1.23 1.34 1.48 1.49
1.46 1.17 1.14 1.22 1.14 1.07 1.12 1.05 1.07 1.20 1.18 1.05 0.89 0.81 0.74 0.78 0.79 0.78 0.84 0.87 0.88 0.85 0.86 0.92 0.98 1.01 1.14 1.30 1.51 1.70 1.80 1.93 2.05 1.97 1.84 1.64 1.43 1.38 1.55 1.60 1.49 1.53 1.64 1.70 1.51 1.56 1.48 1.43 1.53
0.89 0.87 0.92 0.88 0.79 0.86 0.86 0.88 0.91 0.91 0.96 0.89 0.73 0.68 0.70 0.69 0.71 0.70 0.74 0.79 0.83 0.85 0.85 0.85 0.91 1.01 1.12 1.34 1.65 2.15 2.40 2.49 2.38 2.33 2.22 1.96 1.72 1.72 1.92 1.97 1.94 1.93 1.94 1.92 1.84 2.00 1.91 1.62 1.54
0.75 0.83 0.84 0.79 0.69 0.72 0.69 0.71 0.71 0.69 0.64 0.61 0.55 0.52 0.57 0.60 0.69 0.67 0.64 0.66 0.71 0.71 0.74 0.88 0.92 0.98 1.08 1.35 1.65 2.04 2.47 2.52 2.47 2.38 2.28 2.14 1.98 1.95 1.99 2.24 2.37 2.33 2.50 2.50 2.28 2.41 2.44 2.04 1.79
0.72 0.78 0.77 0.83 0.78 0.69 0.66 0.73 0.72 0.63 0.52 0.47 0.44 0.43 0.46 0.47 0.55 0.61 0.62 0.59 0.64 0.62 0.59 0.71 0.86 1.03 1.31 1.61 1.91 2.11 2.42 2.51 2.51 2.40 2.34 2.33 2.25 2.13 2.18 2.29 2.47 2.48 2.56 2.73 2.79 2.70 2.81 2.63 2.21
0.76 0.54 0.49 0.59 0.86 0.92 0.70 0.86 0.69 0.56 0.58 0.51 0.45 0.41 0.42 0.45 0.48 0.52 0.57 0.57 0.54 0.52 0.50 0.59 0.74 1.01 1.41 1.76 2.00 2.25 2.62 2.71 2.58 2.52 2.43 2.40 2.40 2.37 2.46 2.48 2.56 2.59 2.59 2.70 2.83 2.77 2.92 3.06 2.67
0.55 0.45 0.45 0.52 0.71 0.78 0.60 0.62 0.62 0.54 0.59 0.58 0.51 0.48 0.44 0.42 0.40 0.43 0.46 0.46 0.48 0.53 0.55 0.61 0.80 1.08 1.42 1.67 1.93 2.27 2.48 2.60 2.67 2.56 2.50 2.47 2.48 2.49 2.55 2.61 2.75 2.75 2.72 2.68 2.89 2.96 3.05 3.00 2.93
0.39 0.50 0.57 0.58 0.71 0.76 0.42 0.50 0.63 0.53 0.43 0.45 0.47 0.46 0.41 0.39 0.37 0.43 0.48 0.48 0.52 0.57 0.66 0.77 0.95 1.12 1.39 1.63 1.90 2.08 2.27 2.42 2.50 2.54 2.48 2.43 2.46 2.54 2.42 2.35 2.54 2.61 2.65 2.62 2.79 2.92 3.06 3.05 3.08
0.41 0.73 1.00 0.98 0.98 0.75 0.36 0.48 0.62 0.44 0.33 0.34 0.38 0.41 0.40 0.42 0.46 0.53 0.58 0.67 0.76 0.80 0.86 0.97 1.10 1.28 1.41 1.52 1.68 1.80 1.94 2.08 2.08 2.21 2.25 2.36 2.36 2.37 2.38 2.28 2.31 2.36 2.33 2.33 2.43 2.47 2.55 2.72 2.91
0.37 0.58 0.94 1.01 0.85 0.66 0.49 0.69 0.67 0.43 0.36 0.37 0.38 0.43 0.46 0.54 0.62 0.75 0.86 0.99 1.07 1.09 1.13 1.22 1.29 1.34 1.38 1.41 1.49 1.60 1.73 1.81 1.80 1.77 1.76 1.90 2.06 2.09 2.14 2.14 2.10 2.17 2.23 2.20 2.29 2.32 2.30 2.34 2.40
0.36 0.44 0.49 0.64 0.56 0.58 0.59 0.70 0.64 0.46 0.44 0.44 0.46 0.51 0.60 0.78 0.87 1.01 1.16 1.24 1.24 1.24 1.24 1.30 1.34 1.36 1.33 1.35 1.38 1.34 1.42 1.49 1.53 1.50 1.56 1.58 1.61 1.63 1.69 1.75 1.86 1.99 2.08 2.11 2.23 2.33 2.30 2.21 2.18
0.32 0.45 0.61 0.88 0.99 0.87 0.71 0.82 0.81 0.62 0.52 0.49 0.56 0.68 0.84 1.10 1.24 1.40 1.57 1.53 1.47 1.47 1.53 1.44 1.35 1.29 1.27 1.28 1.35 1.29 1.32 1.36 1.35 1.28 1.34 1.33 1.27 1.27 1.32 1.43 1.63 1.90 2.04 2.09 2.16 2.23 2.28 2.27 2.20
0.35 0.48 0.65 0.94 1.04 1.20 1.25 1.27 0.97 0.77 0.70 0.79 0.92 1.04 1.23 1.48 1.63 1.74 1.82 1.80 1.62 1.51 1.50 1.44 1.31 1.22 1.13 1.14 1.26 1.30 1.27 1.29 1.32 1.26 1.19 1.18 1.15 1.15 1.22 1.29 1.46 1.64 1.83 2.04 2.20 2.22 2.18 2.18 2.15
0.44 0.62 0.83 1.31 1.29 1.15 1.35 1.47 1.05 0.86 0.86 0.89 0.98 1.15 1.36 1.47 1.55 1.58 1.57 1.64 1.55 1.46 1.38 1.34 1.26 1.09 1.05 1.10 1.15 1.24 1.22 1.20 1.25 1.21 1.25 1.15 1.08 1.06 1.09 1.24 1.45 1.57 1.64 1.71 1.81 1.88 1.92 1.96 2.02